Voltar ao catálogo

STARLINK-34578

AtivoComunicaçõesSSO
NORAD 64856·PAYLOAD·🇺🇸 United States

Lançado Jul 19, 2025 de Vandenberg Space Force Base

Loading…

Próximas Passagens (próximas 24 horas)

TLE

AtualizadoSource: CelesTrak SupGP

Época: Sep 15, 2026, 03:42 UTC

1 64856C 25152Q   26258.15465278 -.00036821  00000+0 -11427-2 0  2581
2 64856  97.2848 108.8154 0001743  92.7678 345.9549 15.33465191    18

Acompanhe STARLINK-34578 em tempo real com AllMySat

Download on the App Store